Back to catalog

STARLINK-35433

AliveCommunicationsVLEO
NORAD 65870·PAYLOAD·🇺🇸 United States

Launched Oct 3, 2025 from Vandenberg Space Force Base

Loading…

Next Passes (next 24 hours)

TLE

FreshSource: CelesTrak SupGP

Epoch: Sep 14, 2026, 22:40 UTC

1 65870C 25223S   26257.94493056 -.00036234  00000+0 -10706-2 0  2574
2 65870  53.1567 133.6961 0001324  88.4732 189.0232 15.34407721    16

Track STARLINK-35433 in real time with AllMySat

Download on the App Store